Starlink 5885

operational
NORAD ID: 56352 Int'l Des: 2023-058 Owner: SPXS Country: US Constellation: starlink
LEOCIRCULARRETROGRADESSO

Starlink 5885について

説明を読み込み中...

リアルタイム位置

3D地球を読み込み中...

次回通過

高度履歴

Altitude vs Time

uPlot chart will show altitude changes over time

軌道要素

1 56352U 23058AM 25278.46406153 .00000087 00000-0 11305-4 0 9991
2 56352 97.6016 278.2852 0002600 62.8343 297.3147 15.01258144134844
Epoch: Oct 5, 2025 • Age: 13 hours

現在のステータス

高度 564.2 km
速度 7.58 km/s
衛星直下点 18.85°N, 98.98°W
打ち上げ日 Apr 27, 2023
運用期間 2.4 years
タイプ internet

技術仕様

分類 Payload
質量 300.00 kg
乾燥質量 260.00 kg
総質量 300.00 kg
長さ 0.20 m
直径 2.80 m
スパン 9.00 m
形状 Box + pan
製造者 SPXS
バスタイプ Starlink
フェーズステータス In Orbit
所有者/国 SPXS/US

大規模コンステレーション

Loading constellations...